This is the latest recevied weather packets stored in our database for station/object K0SNA. If no packets are shown the sender has not sent any weather packets the latest 10 day(s).
| Time | Temp. | Humidity | Pressure | Rain* | Wind** | Luminosity | Snow |
|---|---|---|---|---|---|---|---|
| 1777920924 | 15.56° C | 38% | 1000.4 hPa | 0 mm | - | 306 W/m² | - |
| 1777920621 | 15.56° C | 38% | 1000.3 hPa | 0 mm | - | 355 W/m² | - |
| 1777920316 | 16.11° C | 37% | 1000.1 hPa | 0 mm | - | 326 W/m² | - |
| 1777920012 | 16.11° C | 37% | 1000.1 hPa | 0 mm | - | 581 W/m² | - |
| 1777919709 | 16.11° C | 36% | 999.9 hPa | 0 mm | - | 571 W/m² | - |
| 1777919408 | 16.11° C | 37% | 1000.1 hPa | 0 mm | - | 491 W/m² | - |
| 1777919104 | 16.11° C | 37% | 1000.2 hPa | 0 mm | - | 653 W/m² | - |
| 1777918801 | 15.56° C | 38% | 999.9 hPa | 0 mm | - | 646 W/m² | - |
| 1777918498 | 15.56° C | 36% | 1000.2 hPa | 0 mm | - | 214 W/m² | - |
| 1777918196 | 15.56° C | 39% | 999.8 hPa | 0 mm | - | 260 W/m² | - |
| 1777917895 | 16.11° C | 37% | 999.7 hPa | 0 mm | - | 283 W/m² | - |
| 1777917593 | 15.56° C | 38% | 999.7 hPa | 0 mm | - | 574 W/m² | - |
| 1777917290 | 15.56° C | 40% | 999.6 hPa | 0 mm | - | 296 W/m² | - |
| 1777916987 | 16.67° C | 38% | 999.5 hPa | 0 mm | - | 342 W/m² | - |
| 1777916685 | 16.11° C | 38% | 999.5 hPa | 0 mm | - | 506 W/m² | - |
| 1777916382 | 16.11° C | 39% | 999.5 hPa | 0 mm | - | 450 W/m² | - |
| 1777916078 | 16.67° C | 40% | 999.4 hPa | 0 mm | - | 796 W/m² | - |
| 1777915776 | 16.67° C | 40% | 999.5 hPa | 0 mm | - | 788 W/m² | - |
| 1777915472 | 16.67° C | 40% | 999.3 hPa | 0 mm | - | 508 W/m² | - |
| 1777915168 | 16.67° C | 40% | 999.5 hPa | 0 mm | - | 811 W/m² | - |
| 1777914866 | 16.67° C | 40% | 999.2 hPa | 0 mm | - | 799 W/m² | - |
| 1777914563 | 16.67° C | 40% | 999.2 hPa | 0 mm | - | 351 W/m² | - |
| 1777914259 | 16.11° C | 39% | 999.2 hPa | 0 mm | - | 366 W/m² | - |
| 1777913956 | 16.67° C | 40% | 999.3 hPa | 0 mm | - | 684 W/m² | - |
| 1777913652 | 16.67° C | 41% | 999.1 hPa | 0 mm | - | 659 W/m² | - |
* Rain latest hour (hover to see other rain measurements)
** Current wind speed in m/s (hover to see current wind gust speed)